Location: G�ppingen
(48.7000°N, 9.6670°E)
Time: 08:11:16
(UTC+02:00)

Envisat - Visible Passes

Search period start: 24 October 2017 00:00
Search period end: 02 November 2017 23:00
Orbit: 764 x 766 km, 98.2° (Epoch: 23 October)

Date Brightness Start Highest point End Pass type
(mag) Time Alt. Az. Time Alt. Az. Time Alt. Az.
24 Oct 3.6 20:10:12 36° ENE 20:10:15 36° ENE 20:14:52 10° N visible
24 Oct 4.6 21:50:25 31° WNW 21:50:25 31° WNW 21:53:57 10° NNW visible
25 Oct 4.3 19:33:12 19° ENE 19:33:54 19° ENE 19:37:27 10° NNE visible
25 Oct 3.5 21:13:25 55° NW 21:13:25 55° NW 21:17:31 10° NNW visible
26 Oct 4.9 18:56:53 10° ENE 18:57:45 10° NE 18:58:37 10° NE visible
26 Oct 3.2 20:36:26 52° NE 20:36:26 52° NE 20:40:43 10° N visible
26 Oct 5.4 22:16:39 19° WNW 22:16:39 19° WNW 22:19:01 10° NW visible
27 Oct 3.8 19:59:26 30° ENE 19:59:26 30° ENE 20:03:36 10° N visible
27 Oct 4.5 21:39:39 34° NW 21:39:39 34° NW 21:42:58 10° NNW visible
28 Oct 4.5 19:22:27 16° ENE 19:22:56 16° NE 19:26:00 10° NNE visible
28 Oct 3.6 21:02:40 50° NNW 21:02:40 50° NNW 21:06:24 10° NNW visible
28 Oct 6.0 22:42:52 11° WNW 22:42:52 11° WNW 22:43:23 10° WNW visible
29 Oct 3.5 19:25:40 41° NE 19:25:40 41° NE 19:29:31 10° N visible
29 Oct 5.3 21:05:53 21° WNW 21:05:53 21° WNW 21:08:11 10° NW visible
30 Oct 4.1 18:48:40 24° NE 18:48:40 24° NE 18:52:18 10° N visible
30 Oct 4.4 20:28:53 34° NW 20:28:53 34° NW 20:31:56 10° NNW visible
31 Oct 4.7 18:11:40 14° ENE 18:11:59 14° NE 18:14:26 10° NNE visible
31 Oct 3.7 19:51:53 43° N 19:51:53 43° N 19:55:17 10° N visible
31 Oct 5.9 21:32:06 13° WNW 21:32:06 13° WNW 21:32:56 10° NW visible
01 Nov 3.9 19:14:53 33° NE 19:14:53 33° NE 19:18:18 10° N visible
01 Nov 5.2 20:55:06 22° NW 20:55:06 22° NW 20:57:16 10° NNW visible
02 Nov 4.3 18:37:52 20° NE 18:37:52 20° NE 18:40:57 10° NNE visible
02 Nov 4.4 20:18:05 32° NNW 20:18:05 32° NNW 20:20:53 10° NNW visible
